Regional Weather Roundup
Issued by NWS Green Bay, WI

Home | Current Version | Previous Version | Graphics & Text | Print | Product List | Glossary Off
Versions: 1 2 3 4 5 6 7 8 9 10 11 12 13 14 15 16 17 18 19 20 21 22 23 24 25 26 27 28 29 30 31 32 33 34 35 36 37 38 39 40 41 42 43 44 45 46 47 48 49 50

000
ASUS43 KGRB 230059
RWRGRB

NORTH-CENTRAL AND NORTHEAST WISCONSIN REGIONAL WEATHER ROUNDUP
NATIONAL WEATHER SERVICE GREEN BAY WI
800 PM CDT FRI AUG 22 2014

WIZ005-009-010>012-018-019-230200-
NORTH CENTRAL WISCONSIN

CITY           SKY/WX    TMP DP  RH WIND       PRES   REMARKS
IRONWOOD       CLOUDY    61  61 100 W3        30.00F VSB 1/2
MANITOWISH WTR NOT AVBL
ARBOR VITAE    NOT AVBL
EAGLE RIVER    NOT AVBL
LAND O LAKES   NOT AVBL
RHINELANDER    CLOUDY    72  70  93 CALM      30.02S
PHILLIPS       CLOUDY    70  68  95 N5        30.01S
ANTIGO         NOT AVBL
TOMAHAWK       NOT AVBL
MERRILL        NOT AVBL
$$

WIZ013-073-230200-
NORTHEAST WISCONSIN

CITY           SKY/WX    TMP DP  RH WIND       PRES   REMARKS
IRON MOUNTAIN  CLOUDY    73  69  87 SE7       29.99S
MARINETTE      MOCLDY    70  66  88 E10       29.98S
$$

WIZ017-030-035>037-045-230200-
CENTRAL WISCONSIN

CITY           SKY/WX    TMP DP  RH WIND       PRES   REMARKS
MEDFORD        NOT AVBL
WAUSAU         MOCLDY    76  72  87 NE7       29.97R
MOSINEE        NOT AVBL
MARSHFIELD     PTCLDY    78  71  79 CALM      29.97R
WISC RAPIDS    PTCLDY    80  74  81 CALM      29.97R
STEVENS POINT  NOT AVBL
WAUPACA        NOT AVBL
SHAWANO        CLOUDY    76  72  85 E6        29.97S
CLINTONVILLE   NOT AVBL
$$

WIZ038-039-048-051-230200-
FOX VALLEY

CITY           SKY/WX    TMP DP  RH WIND       PRES   REMARKS
NWS GREEN BAY  MOCLDY    74  70  87 E7        29.97R
APPLETON       MOCLDY    75  68  78 E9        29.97R
OSHKOSH        MOCLDY    77  72  84 E8        29.96R
FOND DU LAC    PTCLDY    76  70  82 SE8       29.96R
$$

WIZ022-050-052-230200-
EAST CENTRAL WISCONSIN

CITY           SKY/WX    TMP DP  RH WIND       PRES   REMARKS
STURGEON BAY   CLOUDY    70  66  88 E6        30.00S
MANITOWOC      NOT AVBL
SHEBOYGAN      CLOUDY    69  67  93 NE5       29.99R
$$

LMZ563-521-522-541>543-230200-
LAKESHORE

STATION/POSITION TIME  TEMP    WIND        PRES    VSBY  WAVE
                       AIR SEA DIR/SP/G                  HT/PER
                 (UTC) (F)     (DEG/KT/KT) (MB)    (MI)  (FT/S)
SHEBOYGAN LKSHOR 0000   68 63   80/  5/  6 1015.2R
KEWAUNEE LKSHORE 0000   67      30/  2/  3 1014.7R
NORTHPORT PIER   0000   67      90/  5/  7 1015.6S
N MID LAKE BUOY  0000   68 66   80/  6/  8 1015.2F         0
S GREEN BAY BUOY 0000   72     VRB 10      1016.0R
SISTER BAY LKSHO 0000   69     130/  9/ 12   N/A
CHAMBERS ISLAND  0000   70      70/  8/ 11 1015.2R
MENOMINEE LKSHOR 0000   71      60/ 10/ 11 1015.9R
$$


USA.gov is the U.S. government's official web portal to all federal, state and local government web resources and services.